,,PA_Meas_PMT16A,,PR_Meas_QMR101_102,,RH_Meas_QMH101,,SR_Meas_QMS101,,TA_Meas_QMH101,,GenWind,,GenWind,
time,status,PA,status,PR,status,RH,status,SR,status,TA,status,DirAvg,status,SpdAvg,
2009-11-03, 07:00:04,VALID,915.966,VALID,0,VALID,83.6822,VALID,115.499,VALID,22.0794,VALID,119,VALID,2.11758,
2009-11-03, 07:01:04,VALID,915.935,VALID,0,VALID,83.7813,VALID,102.391,VALID,22.0794,VALID,165,VALID,1.17188,
2009-11-03, 07:02:04,VALID,915.938,VALID,0,VALID,84.1396,VALID,98.3087,VALID,22.0989,VALID,174,VALID,1.29453,
2009-11-03, 07:03:04,VALID,915.951,VALID,0,VALID,84.4065,VALID,97.3417,VALID,22.0794,VALID,142,VALID,1.77148,
2009-11-03, 07:04:04,VALID,915.963,VALID,0,VALID,84.9096,VALID,104.54,VALID,22.0403,VALID,137,VALID,1.95352,
2009-11-03, 07:05:04,VALID,915.946,VALID,0,VALID,84.0482,VALID,110.127,VALID,22.0403,VALID,85,VALID,1.91055,
2009-11-03, 07:06:04,VALID,915.948,VALID,0,VALID,85.024,VALID,111.524,VALID,22.081,VALID,85,VALID,0.970703,
2009-11-03, 07:07:04,VALID,915.916,VALID,0,VALID,82.8818,VALID,105.077,VALID,22.0794,VALID,142,VALID,2.41289,
2009-11-03, 07:08:04,VALID,915.966,VALID,0,VALID,83.3468,VALID,100.565,VALID,22.1184,VALID,87,VALID,1.86602,
2009-11-03, 07:09:04,VALID,916.005,VALID,0,VALID,83.8118,VALID,110.664,VALID,22.1379,VALID,99,VALID,1.36289,
2009-11-03, 07:10:04,VALID,915.989,VALID,0,VALID,83.9567,VALID,164.17,VALID,22.1574,VALID,112,VALID,2.11836,
2009-11-03, 07:11:04,VALID,915.929,VALID,0,VALID,82.9046,VALID,181.576,VALID,22.1964,VALID,123,VALID,1.47148,
2009-11-03, 07:12:04,VALID,915.97,VALID,0,VALID,82.3024,VALID,167.716,VALID,22.294,VALID,74,VALID,2.23828,
2009-11-03, 07:13:04,VALID,915.96,VALID,0,VALID,82.8055,VALID,157.831,VALID,22.3118,VALID,138,VALID,1.31758,
2009-11-03, 07:14:04,VALID,915.928,VALID,0,VALID,82.0051,VALID,150.525,VALID,22.3525,VALID,106,VALID,1.60547,
2009-11-03, 07:15:04,VALID,915.943,VALID,0,VALID,82.4549,VALID,144.723,VALID,22.4111,VALID,49,VALID,1.43789,
2009-11-03, 07:16:04,VALID,915.959,VALID,0,VALID,80.3813,VALID,147.946,VALID,22.4111,VALID,74,VALID,3.19062,
2009-11-03, 07:17:04,VALID,915.942,VALID,0,VALID,81.2809,VALID,144.723,VALID,22.4696,VALID,61,VALID,1.51172,
2009-11-03, 07:18:04,VALID,915.999,VALID,0,VALID,81.6849,VALID,132.905,VALID,22.4891,VALID,70,VALID,2.64492,
2009-11-03, 07:19:04,VALID,915.947,VALID,0,VALID,81.0979,VALID,109.912,VALID,22.4891,VALID,49,VALID,3.65313,
2009-11-03, 07:20:04,VALID,916.041,VALID,0,VALID,81.319,VALID,111.524,VALID,22.4891,VALID,55,VALID,1.49766,
2009-11-03, 07:21:04,VALID,916.013,VALID,0,VALID,81.3342,VALID,144.186,VALID,22.4696,VALID,41,VALID,2.64531,
2009-11-03, 07:22:04,VALID,916.092,VALID,0,VALID,81.9746,VALID,165.244,VALID,22.4501,VALID,95,VALID,1.30117,
2009-11-03, 07:23:04,VALID,916.158,VALID,0,VALID,80.5871,VALID,165.459,VALID,22.4891,VALID,103,VALID,2.12109,
2009-11-03, 07:24:04,VALID,916.143,VALID,0,VALID,81.4714,VALID,239.164,VALID,22.5086,VALID,43,VALID,1.01758,
2009-11-03, 07:25:04,VALID,916.176,VALID,0,VALID,81.906,VALID,137.954,VALID,22.5672,VALID,43,VALID,0.383203,
2009-11-03, 07:26:04,VALID,916.186,VALID,0,VALID,81.4486,VALID,139.781,VALID,22.6452,VALID,43,VALID,1.18359,
2009-11-03, 07:27:04,VALID,916.226,VALID,0,VALID,81.2275,VALID,131.186,VALID,22.7233,VALID,43,VALID,0.459375,
2009-11-03, 07:28:04,VALID,916.198,VALID,0,VALID,80.7777,VALID,98.631,VALID,22.7038,VALID,156,VALID,1.20273,
2009-11-03, 07:29:04,VALID,916.263,VALID,0,VALID,81.5553,VALID,101.639,VALID,22.7038,VALID,131,VALID,1.72109,
2009-11-03, 07:30:04,VALID,916.289,VALID,0,VALID,81.014,VALID,101.21,VALID,22.6435,VALID,63,VALID,1.23438,
2009-11-03, 07:31:04,VALID,916.288,VALID,0,VALID,81.8526,VALID,101.962,VALID,22.6647,VALID,24,VALID,1.64609,
2009-11-03, 07:32:04,VALID,916.296,VALID,0,VALID,81.8069,VALID,108.945,VALID,22.6452,VALID,22,VALID,0.729688,
2009-11-03, 07:33:04,VALID,916.275,VALID,0,VALID,81.2885,VALID,96.1598,VALID,22.6452,VALID,22,VALID,1.3625,
2009-11-03, 07:34:04,VALID,916.271,VALID,0,VALID,81.5553,VALID,93.2589,VALID,22.585,VALID,71,VALID,1.83242,
2009-11-03, 07:35:04,VALID,916.281,VALID,0,VALID,82.432,VALID,94.8705,VALID,22.5264,VALID,84,VALID,2.14961,
2009-11-03, 07:36:04,VALID,916.266,VALID,0,VALID,81.7001,VALID,94.3333,VALID,22.4874,VALID,75,VALID,1.4168,
2009-11-03, 07:37:04,VALID,916.302,VALID,0,VALID,82.493,VALID,82.5148,VALID,22.4679,VALID,75,VALID,0.847656,
2009-11-03, 07:38:04,VALID,916.287,VALID,0,VALID,82.3024,VALID,75.2088,VALID,22.4696,VALID,64,VALID,0.905078,
2009-11-03, 07:39:04,VALID,916.309,VALID,0,VALID,82.3481,VALID,82.085,VALID,22.4501,VALID,158,VALID,1.24492,
2009-11-03, 07:40:04,VALID,916.357,VALID,0,VALID,82.5463,VALID,83.6967,VALID,22.4306,VALID,114,VALID,2.14883,
2009-11-03, 07:41:04,VALID,916.337,VALID,0,VALID,82.6836,VALID,86.705,VALID,22.4306,VALID,48,VALID,1.89922,
2009-11-03, 07:42:04,VALID,916.367,VALID,0,VALID,83.019,VALID,100.35,VALID,22.3916,VALID,87,VALID,2.16289,
2009-11-03, 07:43:04,VALID,916.374,VALID,0,VALID,81.8907,VALID,99.2756,VALID,22.3313,VALID,59,VALID,2.60859,
2009-11-03, 07:44:04,VALID,916.341,VALID,0,VALID,82.2872,VALID,100.887,VALID,22.3525,VALID,24,VALID,3.82344,
2009-11-03, 07:45:04,VALID,916.382,VALID,0,VALID,82.7903,VALID,104.433,VALID,22.372,VALID,69,VALID,1.61211,
2009-11-03, 07:46:04,VALID,916.384,VALID,0,VALID,82.7217,VALID,104.863,VALID,22.3313,VALID,138,VALID,1.35469,
2009-11-03, 07:47:04,VALID,916.442,VALID,0,VALID,83.2629,VALID,100.457,VALID,22.3508,VALID,34,VALID,1.99375,
2009-11-03, 07:48:04,VALID,916.432,VALID,0,VALID,82.6226,VALID,114.855,VALID,22.3916,VALID,75,VALID,0.659766,
2009-11-03, 07:49:04,VALID,916.471,VALID,0,VALID,82.8055,VALID,116.036,VALID,22.3916,VALID,75,VALID,0.934766,
2009-11-03, 07:50:04,VALID,916.48,VALID,0,VALID,82.8055,VALID,131.401,VALID,22.3916,VALID,73,VALID,1.35977,
2009-11-03, 07:51:04,VALID,916.475,VALID,0,VALID,83.0114,VALID,134.946,VALID,22.4111,VALID,64,VALID,0.781641,
2009-11-03, 07:52:04,VALID,916.54,VALID,0,VALID,82.5159,VALID,126.995,VALID,22.4289,VALID,64,VALID,0.814062,
2009-11-03, 07:53:04,VALID,916.568,VALID,0,VALID,81.9365,VALID,123.45,VALID,22.4696,VALID,110,VALID,2.60742,
2009-11-03, 07:54:04,VALID,916.574,VALID,0,VALID,82.5235,VALID,123.235,VALID,22.4484,VALID,132,VALID,0.744141,
2009-11-03, 07:55:04,VALID,916.6,VALID,0,VALID,82.8284,VALID,138.707,VALID,22.4891,VALID,111,VALID,1.64063,
2009-11-03, 07:56:04,VALID,916.577,VALID,0,VALID,81.8602,VALID,129.896,VALID,22.5086,VALID,161,VALID,1.45977,
2009-11-03, 07:57:04,VALID,916.65,VALID,0,VALID,81.7535,VALID,108.623,VALID,22.5069,VALID,130,VALID,1.82187,
2009-11-03, 07:58:04,VALID,916.656,VALID,0,VALID,80.3965,VALID,104.218,VALID,22.5477,VALID,129,VALID,1.42383,
2009-11-03, 07:59:04,VALID,916.64,VALID,0,VALID,80.5033,VALID,114.855,VALID,22.5867,VALID,77,VALID,1.44922,
2009-11-03, 08:00:04,VALID,916.69,VALID,0,VALID,80.4575,VALID,137.632,VALID,22.5867,VALID,123,VALID,2.56055,
2009-11-03, 08:01:04,VALID,916.674,VALID,0,VALID,79.6723,VALID,159.013,VALID,22.6062,VALID,128,VALID,2.80547,
2009-11-03, 08:02:04,VALID,916.716,VALID,0,VALID,79.5046,VALID,179.427,VALID,22.6452,VALID,98,VALID,1.85273,
2009-11-03, 08:03:04,VALID,916.705,VALID,0,VALID,80.3051,VALID,191.353,VALID,22.7038,VALID,50,VALID,2.29102,
2009-11-03, 08:04:04,VALID,916.704,VALID,0,VALID,80.5566,VALID,204.675,VALID,22.7233,VALID,70,VALID,1.31445,
2009-11-03, 08:05:04,VALID,916.697,VALID,0,VALID,78.7194,VALID,214.882,VALID,22.7623,VALID,142,VALID,3.25156,
2009-11-03, 08:06:04,VALID,916.699,VALID,0,VALID,78.9176,VALID,250.66,VALID,22.8014,VALID,135,VALID,2.03437,
2009-11-03, 08:07:04,VALID,916.699,VALID,0,VALID,80.6557,VALID,265.165,VALID,22.8599,VALID,122,VALID,1.50664,
2009-11-03, 08:08:04,VALID,916.72,VALID,0,VALID,80.3737,VALID,396.78,VALID,22.9167,VALID,68,VALID,1.50781,
2009-11-03, 08:09:04,VALID,916.776,VALID,0,VALID,79.8858,VALID,172.765,VALID,22.9753,VALID,125,VALID,0.817969,
2009-11-03, 08:10:04,VALID,916.78,VALID,0,VALID,79.7486,VALID,172.873,VALID,23.0941,VALID,187,VALID,0.485156,
2009-11-03, 08:11:04,VALID,916.837,VALID,0,VALID,80.2898,VALID,173.088,VALID,23.2112,VALID,186,VALID,1.21289,
2009-11-03, 08:12:04,VALID,916.82,VALID,0,VALID,78.4068,VALID,190.708,VALID,23.1527,VALID,77,VALID,2.74219,
2009-11-03, 08:13:04,VALID,916.825,VALID,0,VALID,80.1526,VALID,222.188,VALID,23.1119,VALID,92,VALID,1.54961,
2009-11-03, 08:14:04,VALID,916.828,VALID,0,VALID,77.1413,VALID,232.61,VALID,23.1314,VALID,92,VALID,0.334766,
2009-11-03, 08:15:04,VALID,916.813,VALID,0,VALID,77.3624,VALID,233.362,VALID,23.1899,VALID,68,VALID,2.68945,
2009-11-03, 08:16:04,VALID,916.843,VALID,0,VALID,78.971,VALID,263.016,VALID,23.1704,VALID,63,VALID,1.79023,
2009-11-03, 08:17:04,VALID,916.867,VALID,0,VALID,80.7777,VALID,234.544,VALID,23.1704,VALID,38,VALID,1.18945,
2009-11-03, 08:18:04,VALID,916.877,VALID,0,VALID,81.0293,VALID,219.18,VALID,23.1899,VALID,38,VALID,0.811328,
2009-11-03, 08:19:04,VALID,916.871,VALID,0,VALID,78.8337,VALID,212.411,VALID,23.268,VALID,38,VALID,1.01055,
2009-11-03, 08:20:04,VALID,916.905,VALID,0,VALID,79.1387,VALID,250.445,VALID,23.307,VALID,38,VALID,0.835156,
2009-11-03, 08:21:04,VALID,916.902,VALID,0,VALID,78.0562,VALID,212.626,VALID,23.3265,VALID,38,VALID,0.922266,
2009-11-03, 08:22:04,VALID,916.911,VALID,0,VALID,78.5288,VALID,210.262,VALID,23.3265,VALID,38,VALID,1.96133,
2009-11-03, 08:23:04,VALID,916.927,VALID,0,VALID,77.7665,VALID,209.51,VALID,23.3265,VALID,92,VALID,2.74609,
2009-11-03, 08:24:04,VALID,916.897,VALID,0,VALID,77.8427,VALID,207.791,VALID,23.268,VALID,47,VALID,1.96797,
2009-11-03, 08:25:04,VALID,916.928,VALID,0,VALID,78.8795,VALID,197.477,VALID,23.3265,VALID,44,VALID,0.577734,
2009-11-03, 08:26:04,VALID,916.937,VALID,0,VALID,78.8033,VALID,182.543,VALID,23.3053,VALID,54,VALID,0.648438,
2009-11-03, 08:27:04,VALID,916.939,VALID,0,VALID,78.8261,VALID,180.716,VALID,23.2662,VALID,100,VALID,0.708594,
2009-11-03, 08:28:04,VALID,916.9,VALID,0,VALID,77.1566,VALID,193.716,VALID,23.2662,VALID,88,VALID,2.10898,
2009-11-03, 08:29:04,VALID,916.914,VALID,0,VALID,77.2176,VALID,222.833,VALID,23.2077,VALID,98,VALID,1.55391,
2009-11-03, 08:30:04,VALID,916.93,VALID,0,VALID,78.0257,VALID,235.833,VALID,23.229,VALID,102,VALID,0.544141,
2009-11-03, 08:31:04,VALID,916.93,VALID,0,VALID,77.8808,VALID,283.645,VALID,23.2857,VALID,102,VALID,0.497266,
2009-11-03, 08:32:04,VALID,916.916,VALID,0,VALID,78.3992,VALID,313.943,VALID,23.3656,VALID,102,VALID,0.877734,
2009-11-03, 08:33:04,VALID,916.914,VALID,0,VALID,78.1019,VALID,301.48,VALID,23.4028,VALID,44,VALID,1.21719,
2009-11-03, 08:34:04,VALID,916.927,VALID,0,VALID,77.3091,VALID,285.901,VALID,23.4632,VALID,115,VALID,1.4918,
2009-11-03, 08:35:04,VALID,916.929,VALID,0,VALID,77.3014,VALID,301.695,VALID,23.4046,VALID,102,VALID,2.26719,
2009-11-03, 08:36:04,VALID,916.948,VALID,0,VALID,77.5378,VALID,375.507,VALID,23.4224,VALID,64,VALID,2.30195,
2009-11-03, 08:37:04,VALID,916.921,VALID,0,VALID,75.6243,VALID,455.658,VALID,23.4809,VALID,234,VALID,1.16562,
2009-11-03, 08:38:04,VALID,916.917,VALID,0,VALID,76.4247,VALID,706.963,VALID,23.6584,VALID,105,VALID,0.942187,
2009-11-03, 08:39:04,VALID,916.957,VALID,0,VALID,75.7081,VALID,679.458,VALID,23.8908,VALID,123,VALID,1.6793,
2009-11-03, 08:40:04,VALID,916.967,VALID,0,VALID,73.7184,VALID,772.609,VALID,24.0665,VALID,130,VALID,1.6457,
2009-11-03, 08:41:04,VALID,916.952,VALID,0,VALID,72.7808,VALID,348.539,VALID,24.0878,VALID,116,VALID,1.94258,
2009-11-03, 08:42:04,VALID,917.004,VALID,0,VALID,74.6485,VALID,292.455,VALID,24.0506,VALID,128,VALID,1.12383,
2009-11-03, 08:43:04,VALID,917.031,VALID,0,VALID,74.7552,VALID,303.199,VALID,23.9902,VALID,76,VALID,1.63945,
2009-11-03, 08:44:04,VALID,917.011,VALID,0,VALID,75.1974,VALID,330.167,VALID,23.9902,VALID,31,VALID,2.11523,
2009-11-03, 08:45:04,VALID,916.987,VALID,0,VALID,75.2431,VALID,315.017,VALID,23.9707,VALID,78,VALID,1.64531,
2009-11-03, 08:46:04,VALID,916.968,VALID,0,VALID,76.6992,VALID,291.166,VALID,23.8926,VALID,46,VALID,2.28125,
2009-11-03, 08:47:04,VALID,917.043,VALID,0,VALID,77.2938,VALID,286.223,VALID,23.9121,VALID,14,VALID,1.70859,
2009-11-03, 08:48:04,VALID,917.074,VALID,0,VALID,75.2889,VALID,279.24,VALID,23.834,VALID,137,VALID,2.68555,
2009-11-03, 08:49:04,VALID,917.049,VALID,0,VALID,74.3893,VALID,248.082,VALID,23.6974,VALID,96,VALID,2.48438,
2009-11-03, 08:50:04,VALID,917.032,VALID,0,VALID,75.7539,VALID,235.941,VALID,23.6193,VALID,129,VALID,2.54102,
2009-11-03, 08:51:04,VALID,917.085,VALID,0,VALID,77.5835,VALID,278.595,VALID,23.5608,VALID,85,VALID,1.83828,
2009-11-03, 08:52:04,VALID,917.089,VALID,0,VALID,76.4857,VALID,264.735,VALID,23.5412,VALID,73,VALID,2.06289,
2009-11-03, 08:53:04,VALID,917.087,VALID,0,VALID,77.9189,VALID,276.339,VALID,23.5199,VALID,48,VALID,1.97578,
2009-11-03, 08:54:04,VALID,917.044,VALID,0,VALID,76.0283,VALID,439.219,VALID,23.5395,VALID,63,VALID,2.98086,
2009-11-03, 08:55:04,VALID,917.064,VALID,0,VALID,74.6104,VALID,242.065,VALID,23.5608,VALID,87,VALID,1.31641,
2009-11-03, 08:56:04,VALID,917.018,VALID,0,VALID,75.9902,VALID,221.973,VALID,23.5217,VALID,124,VALID,1.81719,
2009-11-03, 08:57:04,VALID,917.004,VALID,0,VALID,75.8149,VALID,185.658,VALID,23.4809,VALID,96,VALID,0.816797,
2009-11-03, 08:58:04,VALID,917.026,VALID,0,VALID,77.0804,VALID,188.559,VALID,23.5022,VALID,355,VALID,0.960156,
2009-11-03, 08:59:04,VALID,917.047,VALID,0,VALID,77.2709,VALID,249.263,VALID,23.5395,VALID,110,VALID,1.29805,
2009-11-03, 09:00:04,VALID,917.049,VALID,0,VALID,77.8122,VALID,217.783,VALID,23.5785,VALID,65,VALID,1.0125,
2009-11-03, 09:01:04,VALID,917.014,VALID,0,VALID,77.6902,VALID,224.122,VALID,23.5998,VALID,55,VALID,1.59453,
2009-11-03, 09:02:04,VALID,917.024,VALID,0,VALID,77.8275,VALID,247.33,VALID,23.5998,VALID,69,VALID,0.938281,
2009-11-03, 09:03:04,VALID,916.967,VALID,0,VALID,76.4095,VALID,269.355,VALID,23.6388,VALID,60,VALID,2.05859,
2009-11-03, 09:04:04,VALID,916.928,VALID,0,VALID,77.3014,VALID,305.24,VALID,23.6779,VALID,37,VALID,1.27188,
2009-11-03, 09:05:04,VALID,916.93,VALID,0,VALID,77.4844,VALID,360.035,VALID,23.6761,VALID,46,VALID,1.62227,
2009-11-03, 09:06:04,VALID,916.913,VALID,0,VALID,75.9597,VALID,543.115,VALID,23.7151,VALID,43,VALID,2.2957,
2009-11-03, 09:07:04,VALID,916.92,VALID,0,VALID,76.1579,VALID,793.023,VALID,23.8127,VALID,139,VALID,1.74023,
2009-11-03, 09:08:04,VALID,916.873,VALID,0,VALID,76.8821,VALID,619.398,VALID,24.0097,VALID,63,VALID,2.51016,
2009-11-03, 09:09:04,VALID,916.916,VALID,0,VALID,73.2229,VALID,845.24,VALID,24.1269,VALID,98,VALID,2.30859,
2009-11-03, 09:10:04,VALID,916.89,VALID,0,VALID,74.4579,VALID,854.479,VALID,24.1464,VALID,61,VALID,2.68203,
2009-11-03, 09:11:04,VALID,916.888,VALID,0,VALID,75.1135,VALID,382.168,VALID,24.2635,VALID,41,VALID,2.50273,
2009-11-03, 09:12:04,VALID,916.86,VALID,0,VALID,74.8619,VALID,834.495,VALID,24.3007,VALID,62,VALID,2.03359,
2009-11-03, 09:13:04,VALID,916.883,VALID,0,VALID,73.3982,VALID,735.435,VALID,24.4587,VALID,57,VALID,1.22187,
2009-11-03, 09:14:04,VALID,916.879,VALID,0,VALID,72.1175,VALID,318.563,VALID,24.5155,VALID,108,VALID,0.957031,
2009-11-03, 09:15:04,VALID,916.859,VALID,0,VALID,71.9574,VALID,589.852,VALID,24.5173,VALID,84,VALID,1.72461,
2009-11-03, 09:16:04,VALID,916.878,VALID,0,VALID,72.9942,VALID,736.831,VALID,24.574,VALID,28,VALID,1.29844,
2009-11-03, 09:17:04,VALID,916.873,VALID,0,VALID,73.7108,VALID,400.326,VALID,24.6521,VALID,65,VALID,2.55391,
2009-11-03, 09:18:04,VALID,916.854,VALID,0,VALID,72.1861,VALID,803.338,VALID,24.5564,VALID,126,VALID,1.38359,
2009-11-03, 09:19:04,VALID,916.855,VALID,0,VALID,73.0018,VALID,445.344,VALID,24.5545,VALID,150,VALID,0.888672,
2009-11-03, 09:20:04,VALID,916.871,VALID,0,VALID,74.7019,VALID,847.388,VALID,24.6912,VALID,63,VALID,1.13359,
2009-11-03, 09:21:04,VALID,916.803,VALID,0,VALID,71.1265,VALID,872.1,VALID,24.7711,VALID,37,VALID,3.33594,
2009-11-03, 09:22:04,VALID,916.842,VALID,0,VALID,72.9866,VALID,343.597,VALID,24.7497,VALID,49,VALID,2.71211,
2009-11-03, 09:23:04,VALID,916.843,VALID,0,VALID,70.0668,VALID,328.77,VALID,24.7497,VALID,93,VALID,2.43633,
2009-11-03, 09:24:04,VALID,916.849,VALID,0,VALID,70.5471,VALID,347.572,VALID,24.5935,VALID,111,VALID,2.77891,
2009-11-03, 09:25:04,VALID,916.859,VALID,0,VALID,73.6956,VALID,319.745,VALID,24.4959,VALID,97,VALID,1.75508,
2009-11-03, 09:26:04,VALID,916.866,VALID,0,VALID,72.6816,VALID,350.258,VALID,24.455,VALID,56,VALID,2.77422,
2009-11-03, 09:27:04,VALID,916.836,VALID,0,VALID,73.566,VALID,334.142,VALID,24.3593,VALID,157,VALID,1.24961,
2009-11-03, 09:28:04,VALID,916.828,VALID,0,VALID,72.8265,VALID,390.011,VALID,24.4178,VALID,76,VALID,1.33789,
2009-11-03, 09:29:04,VALID,916.847,VALID,0,VALID,74.6409,VALID,372.391,VALID,24.416,VALID,96,VALID,1.47578,
2009-11-03, 09:30:04,VALID,916.85,VALID,0,VALID,72.6207,VALID,389.904,VALID,24.4569,VALID,140,VALID,2.79492,
2009-11-03, 09:31:04,VALID,916.822,VALID,0,VALID,73.7032,VALID,410.21,VALID,24.4569,VALID,75,VALID,2.18164,
2009-11-03, 09:32:04,VALID,916.802,VALID,0,VALID,71.9879,VALID,512.494,VALID,24.4374,VALID,141,VALID,2.33477,
2009-11-03, 09:33:04,VALID,916.825,VALID,0,VALID,73.2077,VALID,531.726,VALID,24.4569,VALID,92,VALID,2.26758,
2009-11-03, 09:34:04,VALID,916.818,VALID,0,VALID,73.7947,VALID,446.311,VALID,24.4569,VALID,92,VALID,1.17422,
2009-11-03, 09:35:04,VALID,916.766,VALID,0,VALID,72.5673,VALID,368.416,VALID,24.4959,VALID,107,VALID,4.30898,
2009-11-03, 09:36:04,VALID,916.776,VALID,0,VALID,73.1162,VALID,447.385,VALID,24.4178,VALID,73,VALID,2.91914,
2009-11-03, 09:37:04,VALID,916.825,VALID,0,VALID,73.2763,VALID,591.141,VALID,24.3788,VALID,68,VALID,2.66016,
2009-11-03, 09:38:04,VALID,916.806,VALID,0,VALID,74.2749,VALID,888.753,VALID,24.4569,VALID,87,VALID,2.04297,
2009-11-03, 09:39:04,VALID,916.831,VALID,0,VALID,73.0323,VALID,914.002,VALID,24.6521,VALID,65,VALID,1.90039,
2009-11-03, 09:40:04,VALID,916.803,VALID,0,VALID,74.3207,VALID,797.321,VALID,24.8883,VALID,115,VALID,0.900781,
2009-11-03, 09:41:04,VALID,916.814,VALID,0,VALID,73.7108,VALID,806.238,VALID,25.1988,VALID,42,VALID,2.87734,
2009-11-03, 09:42:04,VALID,916.808,VALID,0,VALID,70.5318,VALID,437.393,VALID,25.1207,VALID,41,VALID,3.47539,
2009-11-03, 09:43:04,VALID,916.783,VALID,0,VALID,69.5942,VALID,441.368,VALID,24.9645,VALID,17,VALID,3.20781,
2009-11-03, 09:44:04,VALID,916.804,VALID,0,VALID,73.3296,VALID,922.812,VALID,24.7869,VALID,87,VALID,1.66719,
2009-11-03, 09:45:04,VALID,916.818,VALID,0,VALID,72.8875,VALID,489.502,VALID,24.8083,VALID,102,VALID,2.32344,
2009-11-03, 09:46:04,VALID,916.786,VALID,0,VALID,73.0095,VALID,999.203,VALID,24.8669,VALID,21,VALID,1.14766,
2009-11-03, 09:47:04,VALID,916.792,VALID,0,VALID,72.3233,VALID,802.8,VALID,25.0426,VALID,117,VALID,1.07266,
2009-11-03, 09:48:04,VALID,916.785,VALID,0,VALID,70.3184,VALID,492.725,VALID,25.2574,VALID,18,VALID,2.33906,
2009-11-03, 09:49:04,VALID,916.82,VALID,0,VALID,71.8202,VALID,391.301,VALID,25.1793,VALID,51,VALID,2.54883,
2009-11-03, 09:50:04,VALID,916.8,VALID,0,VALID,70.6005,VALID,605.431,VALID,24.984,VALID,93,VALID,1.67656,
2009-11-03, 09:51:04,VALID,916.723,VALID,0,VALID,71.3399,VALID,576.637,VALID,25.0798,VALID,331,VALID,0.851953,
2009-11-03, 09:52:04,VALID,916.751,VALID,0,VALID,73.6727,VALID,553.214,VALID,25.3531,VALID,79,VALID,2.4875,
2009-11-03, 09:53:04,VALID,916.887,VALID,0,VALID,70.6005,VALID,475.749,VALID,25.5698,VALID,50,VALID,1.62578,
2009-11-03, 09:54:04,VALID,916.794,VALID,0,VALID,68.7861,VALID,464.898,VALID,25.646,VALID,46,VALID,3.08203,
2009-11-03, 09:55:04,VALID,916.753,VALID,0,VALID,67.4977,VALID,489.394,VALID,25.646,VALID,136,VALID,2.85469,
2009-11-03, 09:56:04,VALID,916.817,VALID,0,VALID,71.0731,VALID,476.287,VALID,25.4917,VALID,119,VALID,2.94219,
2009-11-03, 09:57:04,VALID,916.782,VALID,0,VALID,70.1964,VALID,461.567,VALID,25.5308,VALID,119,VALID,2.13906,
2009-11-03, 09:58:04,VALID,916.779,VALID,0,VALID,67.5892,VALID,428.26,VALID,25.5093,VALID,121,VALID,2.78945,
2009-11-03, 09:59:04,VALID,916.758,VALID,0,VALID,68.6717,VALID,414.615,VALID,25.3941,VALID,52,VALID,3.05547,
2009-11-03, 10:00:04,VALID,916.803,VALID,0,VALID,72.3767,VALID,440.831,VALID,25.4527,VALID,40,VALID,2.92266,
2009-11-03, 10:01:04,VALID,916.822,VALID,0,VALID,67.7417,VALID,437.715,VALID,25.7241,VALID,44,VALID,2.20703,
2009-11-03, 10:02:04,VALID,916.78,VALID,0,VALID,69.2282,VALID,433.955,VALID,25.6089,VALID,51,VALID,4.50664,
2009-11-03, 10:03:04,VALID,916.795,VALID,0,VALID,68.4354,VALID,453.939,VALID,25.3726,VALID,90,VALID,2.42695,
2009-11-03, 10:04:04,VALID,916.803,VALID,0,VALID,69.6323,VALID,432.988,VALID,25.3141,VALID,64,VALID,2.43438,
2009-11-03, 10:05:04,VALID,916.815,VALID,0,VALID,69.8152,VALID,399.144,VALID,25.3141,VALID,50,VALID,2.92383,
2009-11-03, 10:06:04,VALID,916.789,VALID,0,VALID,69.3121,VALID,505.511,VALID,25.1383,VALID,205,VALID,1.33711,
2009-11-03, 10:07:04,VALID,916.728,VALID,0,VALID,69.4874,VALID,450.823,VALID,25.2555,VALID,26,VALID,1.98555,
2009-11-03, 10:08:04,VALID,916.745,VALID,0,VALID,71.6982,VALID,367.879,VALID,25.275,VALID,119,VALID,1.23633,
2009-11-03, 10:09:04,VALID,916.776,VALID,0,VALID,68.9538,VALID,587.488,VALID,25.1383,VALID,97,VALID,2.51367,
2009-11-03, 10:10:04,VALID,916.755,VALID,0,VALID,70.7301,VALID,586.629,VALID,25.0993,VALID,87,VALID,2.06094,
2009-11-03, 10:11:04,VALID,916.857,VALID,0,VALID,69.9982,VALID,449.104,VALID,25.2164,VALID,60,VALID,1.31992,
2009-11-03, 10:12:04,VALID,916.707,VALID,0,VALID,68.0085,VALID,356.275,VALID,25.2945,VALID,61,VALID,2.90859,
2009-11-03, 10:13:04,VALID,916.609,VALID,0,VALID,70.5776,VALID,713.087,VALID,25.1579,VALID,27,VALID,4.36055,
2009-11-03, 10:14:04,VALID,916.711,VALID,0,VALID,71.5763,VALID,644.647,VALID,25.0231,VALID,62,VALID,2.97695,
2009-11-03, 10:15:04,VALID,916.676,VALID,0,VALID,71.2561,VALID,349.721,VALID,25.0407,VALID,43,VALID,3.45352,
2009-11-03, 10:16:04,VALID,916.673,VALID,0,VALID,73.2763,VALID,303.521,VALID,25.1383,VALID,79,VALID,1.35547,
2009-11-03, 10:17:04,VALID,916.662,VALID,0,VALID,70.4937,VALID,677.524,VALID,25.1774,VALID,63,VALID,2.72539,
2009-11-03, 10:18:04,VALID,916.7,VALID,0,VALID,69.6323,VALID,652.92,VALID,25.1774,VALID,60,VALID,3.63867,
2009-11-03, 10:19:04,VALID,916.666,VALID,0,VALID,70.1659,VALID,270.967,VALID,25.1598,VALID,55,VALID,3.0293,
2009-11-03, 10:20:04,VALID,916.629,VALID,0,VALID,71.4009,VALID,546.768,VALID,25.1383,VALID,62,VALID,1.28672,
2009-11-03, 10:21:04,VALID,916.619,VALID,0,VALID,69.0377,VALID,612.629,VALID,25.275,VALID,42,VALID,2.72187,
2009-11-03, 10:22:04,VALID,916.577,VALID,0,VALID,71.6144,VALID,254.743,VALID,25.275,VALID,41,VALID,2.55234,
2009-11-03, 10:23:04,VALID,916.596,VALID,0,VALID,69.6094,VALID,224.552,VALID,25.2379,VALID,9,VALID,2.26445,
2009-11-03, 10:24:04,VALID,916.639,VALID,0,VALID,71.4695,VALID,378.085,VALID,25.1774,VALID,87,VALID,2.11758,
2009-11-03, 10:25:04,VALID,916.664,VALID,0,VALID,70.6919,VALID,323.828,VALID,25.1012,VALID,62,VALID,1.49844,
2009-11-03, 10:26:04,VALID,916.66,VALID,0,VALID,70.6081,VALID,355.308,VALID,25.1579,VALID,76,VALID,0.928516,
2009-11-03, 10:27:04,VALID,916.654,VALID,0,VALID,71.0197,VALID,477.576,VALID,25.2183,VALID,102,VALID,2.04688,
2009-11-03, 10:28:04,VALID,916.645,VALID,0,VALID,71.5839,VALID,278.487,VALID,25.275,VALID,101,VALID,1.42227,
2009-11-03, 10:29:04,VALID,916.695,VALID,0,VALID,70.3946,VALID,316.629,VALID,25.3336,VALID,43,VALID,1.30156,
2009-11-03, 10:30:04,VALID,916.629,VALID,0,VALID,68.0542,VALID,449.534,VALID,25.3531,VALID,162,VALID,0.554297,
2009-11-03, 10:31:04,VALID,916.622,VALID,0,VALID,69.1063,VALID,232.932,VALID,25.4136,VALID,57,VALID,1.45273,
2009-11-03, 10:32:04,VALID,916.676,VALID,0,VALID,71.157,VALID,209.295,VALID,25.3141,VALID,58,VALID,2.54961,
2009-11-03, 10:33:04,VALID,916.559,VALID,0,VALID,71.1646,VALID,276.339,VALID,25.1793,VALID,41,VALID,3.53437,
2009-11-03, 10:34:04,VALID,916.628,VALID,0,VALID,69.8305,VALID,543.975,VALID,25.0212,VALID,74,VALID,3.07461,
2009-11-03, 10:35:04,VALID,916.615,VALID,0,VALID,71.9269,VALID,289.554,VALID,24.9626,VALID,61,VALID,2.77227,